When you browse on this site, cookies collect data to enhance your experience and personalize the content and advertising you see.
Visit our Privacy Policy to learn more. By continuing to use the site, you agree to this use of cookies and data.
  • In Österreich
  • Länderverzeichnis
  • Für 7 Tage
  • Wassertemperatur
  • Wetterkarte
  • News
  • Widgets
  • user-avatar
    Anmelden

    Stündliche Wetter Kielce

    Heute, 5 April, Sonntag

    Zeit Temperatur Niederschläge Wind Luftdruck Luftfeuchtigkeit
    00:00 +2°C° 0 mm 0 m/S 743 mmHg 69%
    01:00 +3°C° 0 mm 1 m/S 744 mmHg 69%
    02:00 +3°C° 0 mm 1 m/S 744 mmHg 70%
    03:00 +2°C° 0 mm 1 m/S 744 mmHg 71%
    04:00 +2°C° 0 mm 1 m/S 744 mmHg 72%
    05:00 +3°C° 0 mm 1 m/S 745 mmHg 69%
    06:00 +3°C° 0 mm 2 m/S 745 mmHg 66%
    07:00 +4°C° 0 mm 2 m/S 746 mmHg 62%
    08:00 +5°C° 0 mm 2 m/S 746 mmHg 56%
    09:00 +7°C° 0 mm 3 m/S 746 mmHg 51%
    10:00 +9°C° 0 mm 3 m/S 746 mmHg 46%
    11:00 +9°C° 0 mm 3 m/S 746 mmHg 43%
    12:00 +10°C° 0 mm 3 m/S 746 mmHg 41%
    13:00 +11°C° 0 mm 4 m/S 746 mmHg 39%
    14:00 +11°C° 0 mm 4 m/S 746 mmHg 39%
    15:00 +11°C° 0 mm 4 m/S 745 mmHg 40%
    16:00 +11°C° 0 mm 4 m/S 745 mmHg 40%
    17:00 +8°C° 0 mm 4 m/S 745 mmHg 46%
    18:00 +8°C° 0 mm 3 m/S 745 mmHg 51%
    19:00 +5°C° 0 mm 3 m/S 745 mmHg 57%
    20:00 +5°C° 0 mm 3 m/S 745 mmHg 57%
    21:00 +4°C° 0 mm 3 m/S 746 mmHg 58%
    22:00 +4°C° 0 mm 3 m/S 746 mmHg 59%
    23:00 +3°C° 0 mm 3 m/S 746 mmHg 59%

    Morgen, 6 April, Montag

    Zeit Temperatur Niederschläge Wind Luftdruck Luftfeuchtigkeit
    00:00 +3°C° 0 mm 3 m/S 745 mmHg 60%
    01:00 +3°C° 0 mm 3 m/S 745 mmHg 60%
    02:00 +1°C° 0 mm 4 m/S 745 mmHg 60%
    03:00 +1°C° 0 mm 4 m/S 745 mmHg 61%
    04:00 +1°C° 0 mm 4 m/S 745 mmHg 61%
    05:00 +1°C° 0 mm 4 m/S 745 mmHg 61%
    06:00 +3°C° 0 mm 4 m/S 745 mmHg 60%
    07:00 +4°C° 0 mm 4 m/S 745 mmHg 60%
    08:00 +6°C° 0 mm 4 m/S 745 mmHg 56%
    09:00 +8°C° 0 mm 4 m/S 745 mmHg 52%
    10:00 +11°C° 0 mm 4 m/S 746 mmHg 48%
    11:00 +12°C° 0 mm 4 m/S 745 mmHg 44%
    12:00 +14°C° 0 mm 4 m/S 745 mmHg 41%
    13:00 +16°C° 0 mm 3 m/S 745 mmHg 37%
    14:00 +16°C° 0 mm 3 m/S 745 mmHg 37%
    15:00 +16°C° 0 mm 3 m/S 745 mmHg 37%
    16:00 +16°C° 0 mm 2 m/S 745 mmHg 37%
    17:00 +14°C° 0 mm 2 m/S 744 mmHg 43%
    18:00 +13°C° 0 mm 2 m/S 744 mmHg 49%
    19:00 +10°C° 0 mm 2 m/S 744 mmHg 55%
    20:00 +9°C° 0 mm 2 m/S 745 mmHg 57%
    21:00 +8°C° 0 mm 2 m/S 745 mmHg 59%
    22:00 +7°C° 0 mm 2 m/S 745 mmHg 61%
    23:00 +7°C° 0 mm 2 m/S 745 mmHg 62%

    übermorgen, 7 April, Dienstag

    Zeit Temperatur Niederschläge Wind Luftdruck Luftfeuchtigkeit
    00:00 +7°C° 0 mm 1 m/S 745 mmHg 63%
    01:00 +6°C° 0 mm 1 m/S 745 mmHg 64%
    02:00 +6°C° 0 mm 1 m/S 745 mmHg 65%
    03:00 +5°C° 0 mm 0 m/S 745 mmHg 67%
    04:00 +5°C° 0 mm 0 m/S 745 mmHg 68%
    05:00 +6°C° 0 mm 0 m/S 745 mmHg 65%
    06:00 +8°C° 0 mm 1 m/S 746 mmHg 62%
    07:00 +9°C° 0 mm 1 m/S 746 mmHg 59%
    08:00 +10°C° 0 mm 2 m/S 746 mmHg 52%
    09:00 +12°C° 0 mm 3 m/S 746 mmHg 45%
    10:00 +14°C° 0 mm 3 m/S 746 mmHg 38%
    11:00 +15°C° 0 mm 4 m/S 746 mmHg 36%
    12:00 +15°C° 0 mm 4 m/S 746 mmHg 33%
    13:00 +17°C° 0 mm 4 m/S 746 mmHg 31%
    14:00 +17°C° 0 mm 4 m/S 745 mmHg 32%
    15:00 +17°C° 0 mm 4 m/S 745 mmHg 32%
    16:00 +17°C° 0 mm 4 m/S 745 mmHg 33%
    17:00 +14°C° 0 mm 3 m/S 745 mmHg 37%
    18:00 +13°C° 0 mm 2 m/S 744 mmHg 41%
    19:00 +10°C° 0 mm 2 m/S 744 mmHg 45%
    20:00 +10°C° 0 mm 2 m/S 744 mmHg 45%
    21:00 +9°C° 0 mm 2 m/S 745 mmHg 46%
    22:00 +8°C° 0 mm 2 m/S 745 mmHg 46%
    23:00 +8°C° 0 mm 2 m/S 745 mmHg 48%

    8 April, Mittwoch

    Zeit Temperatur Niederschläge Wind Luftdruck Luftfeuchtigkeit
    00:00 +7°C° 0 mm 2 m/S 745 mmHg 50%
    01:00 +7°C° 0 mm 2 m/S 745 mmHg 52%
    02:00 +8°C° 0 mm 1 m/S 745 mmHg 54%
    03:00 +7°C° 0 mm 1 m/S 745 mmHg 57%
    04:00 +7°C° 0 mm 1 m/S 745 mmHg 59%
    05:00 +8°C° 0 mm 1 m/S 745 mmHg 58%
    06:00 +9°C° 0 mm 1 m/S 745 mmHg 57%
    07:00 +10°C° 0 mm 1 m/S 745 mmHg 56%
    08:00 +12°C° 0 mm 1 m/S 745 mmHg 53%
    09:00 +14°C° 0 mm 1 m/S 744 mmHg 49%
    10:00 +18°C° 0 mm 1 m/S 744 mmHg 46%
    11:00 +19°C° 0 mm 1 m/S 744 mmHg 43%
    12:00 +19°C° 0 mm 1 m/S 744 mmHg 40%
    13:00 +18°C° 0 mm 0 m/S 743 mmHg 36%
    14:00 +20°C° 0 mm 1 m/S 743 mmHg 36%
    15:00 +20°C° 0 mm 1 m/S 742 mmHg 36%
    16:00 +19°C° 0 mm 1 m/S 742 mmHg 36%
    17:00 +18°C° 0 mm 1 m/S 742 mmHg 42%
    18:00 +15°C° 0 mm 1 m/S 741 mmHg 47%
    19:00 +13°C° 0 mm 1 m/S 741 mmHg 52%
    20:00 +12°C° 0 mm 1 m/S 741 mmHg 53%
    21:00 +12°C° 0 mm 1 m/S 741 mmHg 55%
    22:00 +11°C° 0 mm 1 m/S 741 mmHg 56%
    23:00 +11°C° 0 mm 1 m/S 740 mmHg 57%

    9 April, Donnerstag

    Zeit Temperatur Niederschläge Wind Luftdruck Luftfeuchtigkeit
    00:00 +10°C° 0 mm 1 m/S 740 mmHg 58%
    01:00 +10°C° 0 mm 1 m/S 740 mmHg 59%
    02:00 +9°C° 0 mm 1 m/S 739 mmHg 59%
    03:00 +9°C° 0 mm 1 m/S 739 mmHg 59%
    04:00 +8°C° 0 mm 1 m/S 739 mmHg 59%
    05:00 +9°C° 0 mm 1 m/S 739 mmHg 57%
    06:00 +10°C° 0 mm 1 m/S 739 mmHg 54%
    07:00 +10°C° 0 mm 2 m/S 739 mmHg 51%
    08:00 +13°C° 0 mm 2 m/S 739 mmHg 47%
    09:00 +14°C° 0 mm 3 m/S 739 mmHg 42%
    10:00 +17°C° 0 mm 3 m/S 738 mmHg 38%
    11:00 +18°C° 0 mm 3 m/S 738 mmHg 36%
    12:00 +19°C° 0 mm 4 m/S 738 mmHg 34%
    13:00 +19°C° 0 mm 4 m/S 737 mmHg 32%
    14:00 +19°C° 0 mm 4 m/S 737 mmHg 33%
    15:00 +19°C° 0 mm 4 m/S 736 mmHg 34%
    16:00 +19°C° 0 mm 4 m/S 736 mmHg 34%
    17:00 +17°C° 0 mm 3 m/S 736 mmHg 40%
    18:00 +14°C° 0 mm 3 m/S 736 mmHg 46%
    19:00 +13°C° 0 mm 2 m/S 736 mmHg 51%
    20:00 +12°C° 0 mm 2 m/S 736 mmHg 53%
    21:00 +12°C° 0 mm 2 m/S 736 mmHg 54%
    22:00 +10°C° 0 mm 2 m/S 736 mmHg 56%
    23:00 +10°C° 0 mm 2 m/S 736 mmHg 63%

    10 April, Freitag

    Zeit Temperatur Niederschläge Wind Luftdruck Luftfeuchtigkeit
    00:00 +9°C° 0 mm 3 m/S 736 mmHg 69%
    01:00 +9°C° 0 mm 3 m/S 737 mmHg 76%
    02:00 +8°C° 0 mm 3 m/S 737 mmHg 81%
    03:00 +7°C° 0 mm 3 m/S 737 mmHg 85%
    04:00 +7°C° 0 mm 3 m/S 737 mmHg 90%
    05:00 +7°C° 0 mm 3 m/S 738 mmHg 85%
    06:00 +8°C° 0 mm 3 m/S 738 mmHg 81%
    07:00 +7°C° 0 mm 4 m/S 738 mmHg 77%
    08:00 +8°C° 0 mm 4 m/S 739 mmHg 67%
    09:00 +10°C° 0 mm 4 m/S 739 mmHg 58%
    10:00 +11°C° 0 mm 4 m/S 739 mmHg 48%
    11:00 +12°C° 0 mm 4 m/S 739 mmHg 45%
    12:00 +13°C° 0 mm 3 m/S 739 mmHg 42%
    13:00 +13°C° 0 mm 3 m/S 739 mmHg 38%
    14:00 +13°C° 0 mm 3 m/S 739 mmHg 39%
    15:00 +13°C° 0 mm 3 m/S 739 mmHg 40%
    16:00 +13°C° 0 mm 3 m/S 739 mmHg 41%
    17:00 +12°C° 0 mm 2 m/S 739 mmHg 48%
    18:00 +10°C° 0 mm 2 m/S 739 mmHg 54%
    19:00 +8°C° 0 mm 2 m/S 739 mmHg 61%
    20:00 +8°C° 0 mm 1 m/S 739 mmHg 63%
    21:00 +8°C° 0 mm 1 m/S 739 mmHg 65%
    22:00 +7°C° 0 mm 1 m/S 739 mmHg 67%
    23:00 +7°C° 0 mm 1 m/S 739 mmHg 68%
    Mehr zeigen